User: anonymous   Login
Location: Antichan
(42.9728°N, 0.6667°E)
Time: 04:39:31
(UTC+00:00)
Language:

Lacrosse 4 Rocket - Orbit

View from above orbital plane
View from above orbital plane
View from above satellite
View from above satellite

Ground track
Ground track

The orbit data is extracted from the following two-line orbital elements,

1 26474U 00047B   20304.10741363 +.00000152 +00000-0 +24084-4 0  9998
2 26474 067.9945 065.0357 0052325 045.7913 314.7509 14.96007424099382
Epoch (UTC): 30 October 2020 02:34:40
Eccentricity: 0.0052325
inclination: 67.9945°
perigee height: 543 km
apogee height: 615 km
right ascension of ascending node: 65.0357°
argument of perigee: 45.7913°
revolutions per day: 14.96007424
mean anomaly at epoch: 314.7509°
orbit number at epoch: 9938

The dashed part of the orbit path shows where the satellite is in the earth's shadow,  

DLR